User: anonymous   Login
Location: Unspecified
(0.0000°N, 0.0000°E)
Time: 19:04:04
(UTC+00:00)
Language:

NOSS 3-3 (C) - Orbit

View from above orbital plane
View from above orbital plane
View from above satellite
View from above satellite

Ground track
Ground track

The orbit data is extracted from the following two-line orbital elements,

1 28541U 05004C   19076.85920401 0.00000000  00000-0  00000-0 0    04
2 28541  63.4345   0.0111 0321869 357.6129   2.3871 13.40780855    04
Epoch (UTC): 17 March 2019 20:37:15
Eccentricity: 0.0321869
inclination: 63.4345°
perigee height: 865 km
apogee height: 1347 km
right ascension of ascending node: 0.0111°
argument of perigee: 357.6129°
revolutions per day: 13.40780855
mean anomaly at epoch: 2.3871°
orbit number at epoch: 0

The dashed part of the orbit path shows where the satellite is in the earth's shadow,  

DLR